sat.trackr.live / text

‹ back to catalog

STARLINK-31837

NORAD 61514 · 2024-183F

PAYLOAD ACTIVE UNKNOWN

§ Identity

Operator
Country
US
Launch date
2024-10-15
Launch site
AFETR
Launch vehicle
Mass (kg)
RCS (m²)

Purposes: comms

External: N2YO · Heavens-Above · Gunter

§ Orbital elements

Epoch: 2026-05-25T01:10:51.350016Z

Period
94.11 min
Inclination
53.1586°
Eccentricity
0.0001064
Mean motion
15.30194073 rev/d
Perigee alt
474.5 km
Apogee alt
476.0 km
Semi-major
6,853.4 km
B*
3.2625e-5
RAAN
147.7418°
Arg perigee
74.0072°
Mean anomaly
286.1046°
Rev number
9,134

§ Raw data

STARLINK-318371 61514U 24183F   26145.04920544  .00000607  00000+0  32625-4 0  99952 61514  53.1586 147.7418 0001064  74.0072 286.1046 15.30194073 91347

JSON: /api/v1/satellites/61514 · /tle

For live sub-satellite position, see the globe view (requires WebGL).

§ Visibility from observer

Set your observer location to see the next 7 days of passes ≥ 10°. The values pass through the URL so the page stays shareable.

No JS? Fill the form by hand. The geolocation button needs JavaScript.